Flag for Belgium Weather past 2 weeks in Charleroi, Belgium

Now
46 °F

Partly sunny.


Feels Like: 39 °F
Forecast: 45 / 52 °F
Wind: 20 mph from Southwest

Location: Charleroi / Gosselies

Current Time: Dec 22, 2014 at 12:26:20 PM

Latest Report: Dec 22, 2014 at 11:50 AM


Visibility: N/A

Pressure: 30.21 "Hg

Humidity: 93%

Dew point: 45 °F

Location of CharleroiLocation

Historic Weather in Charleroi — Graph

°F

Charleroi temperature yesterday

Maximum temperature yesterday: 45 °F (at 12:50 PM)
Minimum temperature yesterday: 37 °F (at 6:20 AM)
Average temperature yesterday: 42 °F

Past Weeks' High & Low Weather Summary

 TemperatureHumidityPressure
High52 °F (Dec 18, 5:50 AM)100% (Dec 7, 3:50 PM)30.45 "Hg (Dec 7, 3:50 PM)
Low32 °F (Dec 8, 5:20 AM)71% (Dec 10, 2:20 PM)29.45 "Hg (Dec 12, 2:20 PM)
Average41 °F91%30.01 "Hg
* Reported Dec 7 11:20 AM — Dec 22 11:20 AM, Charleroi, Weather by CustomWeather, © 2014

Note: Actual official high and low records may vary slightly from our data, if they occured in-between our weather recording intervals... More about our weather records

Advertising

Charleroi weather history for previous 24 hours

 ConditionsComfort  
Time TempWeatherWind HumidityBarometerVisibility
11:20 AM
Dec 22
45 °FPartly sunny.18 mph93%30.21 "HgN/A
10:50 AM45 °FPartly sunny.20 mph93%30.24 "HgN/A
10:20 AM45 °FDrizzle. Partly sunny.18 mph93%30.21 "Hg2 mi
9:50 AM45 °FDrizzle. Partly sunny.21 mph93%30.24 "Hg2 mi
9:20 AM45 °FPartly sunny.23 mph93%30.21 "HgN/A
8:50 AM45 °FPartly sunny.22 mph93%30.21 "HgN/A
8:20 AM45 °FPassing clouds.22 mph87%30.21 "HgN/A
7:50 AM45 °FPassing clouds.25 mph87%30.21 "HgN/A
7:20 AM45 °FPassing clouds.22 mph87%30.21 "HgN/A
6:50 AM45 °FPassing clouds.24 mph87%30.21 "HgN/A
6:20 AM45 °FPassing clouds.22 mph93%30.24 "HgN/A
5:50 AM45 °FPassing clouds.24 mph93%30.21 "HgN/A
5:20 AM45 °FPassing clouds.21 mph93%30.21 "Hg6 mi
4:50 AM45 °FPassing clouds.23 mph93%30.24 "Hg5 mi
4:20 AM45 °FPassing clouds.22 mph93%30.24 "HgN/A
3:50 AM45 °FPassing clouds.20 mph93%30.24 "HgN/A
3:20 AM45 °FPassing clouds.20 mph93%30.27 "Hg4 mi
2:50 AM45 °FPassing clouds.20 mph87%30.27 "HgN/A
2:20 AM45 °FPassing clouds.22 mph87%30.27 "HgN/A
1:50 AM45 °FPassing clouds.21 mph87%30.27 "HgN/A
1:20 AM45 °FPartly cloudy.22 mph87%30.27 "HgN/A
12:50 AM45 °FPartly cloudy.21 mph87%30.30 "HgN/A
12:20 AM45 °FPassing clouds.23 mph87%30.30 "HgN/A
11:50 PM
Dec 21
45 °FPassing clouds.20 mph87%30.30 "HgN/A
11:20 PM45 °FPassing clouds.20 mph81%30.30 "HgN/A
10:50 PM45 °FPassing clouds.21 mph81%30.30 "HgN/A
10:20 PM45 °FPartly cloudy.20 mph81%30.30 "HgN/A
9:50 PM45 °FPassing clouds.22 mph81%30.30 "HgN/A
9:20 PM45 °FPassing clouds.20 mph81%30.33 "HgN/A
8:50 PM43 °FPassing clouds.21 mph87%30.33 "HgN/A
8:20 PM43 °FPassing clouds.18 mph93%30.33 "Hg6 mi
7:50 PM45 °FPassing clouds.21 mph87%30.33 "Hg6 mi
7:20 PM45 °FPassing clouds.16 mph87%30.33 "HgN/A
6:50 PM45 °FDrizzle. Fog.21 mph87%30.33 "Hg2 mi
6:20 PM45 °FDrizzle. Fog.23 mph87%30.33 "Hg3 mi
5:50 PM45 °FDrizzle. Fog.21 mph87%30.33 "Hg3 mi
5:20 PM45 °FDrizzle. Fog.21 mph93%30.36 "Hg3 mi
4:50 PM45 °FPartly cloudy.20 mph93%30.33 "HgN/A
4:20 PM45 °FBroken clouds.18 mph93%30.36 "Hg4 mi
3:50 PM45 °FDrizzle. Fog.18 mph93%30.36 "Hg2 mi
3:20 PM45 °FDrizzle. Fog.17 mph93%30.36 "Hg2 mi
2:50 PM45 °FPartly sunny.16 mph87%30.36 "HgN/A
2:20 PM45 °FDrizzle. Partly sunny.18 mph87%30.36 "Hg4 mi
1:50 PM45 °FDrizzle. Broken clouds.21 mph87%30.39 "HgN/A
1:20 PM45 °FBroken clouds.18 mph81%30.39 "HgN/A
12:50 PM45 °FBroken clouds.20 mph81%30.39 "HgN/A
12:20 PM43 °FBroken clouds.16 mph87%30.42 "HgN/A
Weather by CustomWeather, © 2014

See weather overviewHow to use our weather pages